Flight Track Log - Related Links

Times and Time Zones

All times are in EDT time to prevent confusion due to time zone crossing. See the AAL1018 flight status page for this flight to view local times or setup timezone preferences in your user account.

Time Position Orientation Groundspeed Altitude Reporting Facility
EDT Latitude Longitude Course Direction KTS MPH feet Rate Location/Type
Fri 10:05:55 PM 32.7799 -96.9849 124° Southeast 251 289 5,600  Level FlightAware ADS-B
Fri 10:06:00 PM 32.8012 -96.7132 68° East  Level FlightAware Approximate
Fri 10:06:20 PM 32.7717 -96.9626 111° Southeast 259 298 6,000  Level FlightAware ADS-B
Fri 10:06:40 PM 32.7661 -96.9383 101° East 268 308 6,700 3,120 Climbing FlightAware ADS-B
Fri 10:06:45 PM 32.7654 -96.9302 94° East 273 314 7,300 2,857 Climbing FlightAware ADS-B
Fri 10:07:01 PM 32.7663 -96.8891 88° East 294 338 7,700 982 Climbing FlightAware ADS-B
Fri 10:07:40 PM 32.7687 -96.8438 84° East 300 345 8,200 1,125 Climbing FlightAware ADS-B
Fri 10:07:49 PM 32.7726 -96.8244 75° East 306 352 8,600 2,276 Climbing FlightAware ADS-B
Fri 10:08:09 PM 32.7831 -96.7959 64° Northeast 310 357 9,300 2,222 Climbing FlightAware ADS-B
Fri 10:15:28 PM 33.0386 -95.8338 80° East 474 545 25,600 2,192 Climbing FlightAware ADS-B (KHOU)
Fri 10:15:57 PM 33.0494 -95.7619 76° East 479 551 26,400 1,525 Climbing FlightAware ADS-B (KHOU)
Fri 10:16:27 PM 33.0707 -95.6821 71° East 482 555 27,100 1,377 Climbing FlightAware ADS-B (KHOU)
Fri 10:16:58 PM 33.0904 -95.6134 71° East 489 563 27,800 1,345 Climbing FlightAware ADS-B (KHOU)
Fri 10:17:25 PM 33.1094 -95.5467 71° East 493 567 28,400 1,273 Climbing FlightAware ADS-B (KHOU)
Fri 10:18:37 PM 33.1614 -95.3618 71° East 509 586 29,900 1,294 Climbing FlightAware ADS-B (KHOU)
Fri 10:19:07 PM 33.1872 -95.2696 71° East 509 586 30,600 1,525 Climbing FlightAware ADS-B (KHOU)
Fri 10:19:36 PM 33.2099 -95.1882 71° East 508 585 31,400 1,629 Climbing FlightAware ADS-B (KHOU)
Fri 10:20:17 PM 33.2400 -95.0802 71° East 506 582 32,500 1,500 Climbing FlightAware ADS-B (KHOU)
Fri 10:20:52 PM 33.2646 -94.9917 72° East 503 579 33,300 1,358 Climbing FlightAware ADS-B
Fri 10:21:10 PM 33.2775 -94.9454 71° East 505 581 33,700 1,500 Climbing FlightAware ADS-B (KHOU)
Fri 10:21:40 PM 33.2953 -94.8816 72° East 500 575 34,500 1,358 Climbing FlightAware ADS-B
Fri 10:22:03 PM 33.3174 -94.8018 71° East 505 581 34,900 1,200 Climbing FlightAware ADS-B (KHOU)
Fri 10:22:05 PM 33.3181 -94.7992 71° East 498 573 35,000 1,385 Climbing FlightAware ADS-B (KHOU)
Fri 10:22:29 PM 33.3371 -94.7300 73° East 496 571 35,500 971 Climbing FlightAware ADS-B
Fri 10:23:13 PM 33.3674 -94.6197 71° East 500 575 36,100 822 Climbing FlightAware ADS-B (KHOU)
Fri 10:23:42 PM 33.3895 -94.5394 72° East 504 580 36,500 682 Climbing FlightAware ADS-B
Fri 10:23:57 PM 33.3901 -94.5370 71° East 503 579 36,600 800 Climbing FlightAware ADS-B (KHOU)
Fri 10:24:12 PM 33.4113 -94.4600 72° East 505 581 36,900 375 Climbing FlightAware ADS-B
Fri 10:25:01 PM 33.4469 -94.3300 72° East 503 579 37,000 75 Climbing FlightAware ADS-B
Fri 10:25:32 PM 33.4690 -94.2489 73° East 504 580 37,000  Level FlightAware ADS-B
Fri 10:25:57 PM 33.4858 -94.1840 72° East 503 579 37,000  Level FlightAware ADS-B (KHOU)
Fri 10:26:11 PM 33.4906 -94.1654 73° East 504 580 37,000  Level FlightAware ADS-B
Fri 10:26:42 PM 33.5180 -94.0667 68° East 501 577 37,000  Level FlightAware ADS-B
Fri 10:27:12 PM 33.5472 -93.9902 65° Northeast 498 573 37,000  Level FlightAware ADS-B
Fri 10:27:51 PM 33.5855 -93.8910 65° Northeast 498 573 37,000  Level FlightAware ADS-B
Fri 10:28:22 PM 33.6156 -93.8129 65° Northeast 498 573 37,000  Level FlightAware ADS-B
Fri 10:29:39 PM 33.6900 -93.6197 65° Northeast 498 573 37,000  Level FlightAware ADS-B
Fri 10:30:12 PM 33.7216 -93.5372 65° Northeast 499 574 37,000  Level FlightAware ADS-B
Fri 10:31:40 PM 33.8026 -93.3255 65° Northeast 499 574 37,000  Level FlightAware ADS-B
Fri 10:32:42 PM 33.8614 -93.1717 65° Northeast 498 573 37,000  Level Memphis Center
Fri 10:37:37 PM 33.6944 -93.6082 66° East 492 566 37,000  Level FlightAware ADS-B
Fri 10:43:14 PM 34.4549 -91.5705 66° East 496 571 37,000  Level FlightAware ADS-B
Fri 10:44:00 PM 34.4964 -91.4558 66° East 497 572 37,000  Level FlightAware ADS-B
Fri 10:44:40 PM 34.5331 -91.3539 67° East 497 572 37,000  Level FlightAware ADS-B
Fri 10:45:18 PM 34.5692 -91.2535 67° East 497 572 37,000  Level FlightAware ADS-B
Fri 10:46:01 PM 34.6068 -91.1484 67° East 496 571 37,000  Level FlightAware ADS-B
Fri 10:46:40 PM 34.6409 -91.0523 67° East 495 570 37,000  Level FlightAware ADS-B
Fri 10:47:21 PM 34.6796 -90.9431 67° East 494 568 37,000  Level FlightAware ADS-B
Fri 10:48:00 PM 34.7155 -90.8418 67° East 493 567 37,000  Level FlightAware ADS-B
Fri 10:48:41 PM 34.7525 -90.7370 67° East 492 566 37,000  Level FlightAware ADS-B
Fri 10:49:16 PM 34.7791 -90.6616 67° East 492 566 37,000  Level FlightAware ADS-B
Fri 10:50:01 PM 34.8232 -90.5364 67° East 491 565 37,000  Level FlightAware ADS-B
Fri 10:50:54 PM 34.8704 -90.4009 67° East 491 565 37,000  Level FlightAware ADS-B
Fri 10:51:58 PM 34.9164 -90.2722 67° East 492 566 37,000  Level Memphis Center
Fri 10:52:59 PM 34.9703 -90.1192 67° East 492 566 37,000  Level Memphis Center
Fri 10:54:00 PM 35.0236 -89.9636 67° East 492 566 37,000  Level Memphis Center
Fri 10:55:01 PM 35.0789 -89.8083 66° East 492 566 37,000  Level Memphis Center
Fri 10:56:02 PM 35.1333 -89.6544 67° East 491 565 37,000  Level Memphis Center
Fri 10:57:03 PM 35.1869 -89.5017 67° East 490 564 37,000  Level Memphis Center
Fri 10:58:03 PM 35.2514 -89.3194 67° East 489 563 37,000  Level Memphis Center
Fri 10:59:04 PM 35.3050 -89.1656 67° East 489 563 37,000  Level Memphis Center
Fri 11:00:05 PM 35.3594 -89.0114 67° East 489 563 37,000  Level Memphis Center
Fri 11:01:06 PM 35.4131 -88.8575 67° East 490 564 37,000  Level Memphis Center
Fri 11:02:07 PM 35.4631 -88.7122 67° East 494 568 37,000  Level Memphis Center
Fri 11:03:08 PM 35.5167 -88.5575 67° East 494 568 37,000  Level Memphis Center
Fri 11:08:58 PM 35.8266 -87.6341 68° East 497 572 37,000  Level FlightAware ADS-B (KMDQ)
Fri 11:13:25 PM 36.0504 -86.9520 68° East 500 575 37,000  Level FlightAware ADS-B (KMDQ)
Fri 11:14:05 PM 36.0959 -86.8119 68° East 500 575 37,000  Level FlightAware ADS-B (KMDQ)
Fri 11:14:47 PM 36.1295 -86.7079 68° East 500 575 37,000  Level FlightAware ADS-B (KMDQ)
Fri 11:15:27 PM 36.1658 -86.5957 68° East 500 575 37,000  Level FlightAware ADS-B (KMDQ)
Fri 11:16:22 PM 36.2029 -86.4815 68° East 499 574 37,000  Level FlightAware ADS-B (KMDQ)
Fri 11:17:31 PM 36.2658 -86.2850 68° East 499 574 37,000  Level Indianapolis Center
Fri 11:18:20 PM 36.3092 -86.1517 68° East 498 573 37,000  Level Memphis Center
Fri 11:19:21 PM 36.3608 -85.9897 68° East 498 573 37,000  Level Memphis Center
Fri 11:20:22 PM 36.4119 -85.8292 68° East 499 574 37,000  Level Memphis Center
Fri 11:21:23 PM 36.4636 -85.6672 68° East 499 574 37,000  Level Memphis Center
Fri 11:22:23 PM 36.5144 -85.5053 69° East 499 574 37,000  Level Memphis Center
Fri 11:23:24 PM 36.5653 -85.3433 69° East 499 574 37,000  Level Memphis Center
Fri 11:24:25 PM 36.6150 -85.1811 69° East 499 574 37,000  Level Memphis Center
Fri 11:25:38 PM 36.6744 -84.9853 69° East 500 575 37,000  Level Indianapolis Center
Fri 11:26:38 PM 36.7256 -84.8211 69° East 501 577 37,000  Level Indianapolis Center
Fri 11:27:39 PM 36.7750 -84.6586 69° East 501 577 37,000  Level Indianapolis Center
Fri 11:28:40 PM 36.8256 -84.4883 70° East 501 577 37,000  Level Indianapolis Center
Fri 11:29:41 PM 36.8747 -84.3247 69° East 502 578 37,000  Level Indianapolis Center
Fri 11:30:42 PM 36.9247 -84.1617 69° East 502 578 37,000  Level Indianapolis Center
Fri 11:31:42 PM 36.9717 -83.9983 70° East 501 577 37,000  Level Indianapolis Center
Fri 11:32:43 PM 37.0208 -83.8358 69° East 501 577 37,000  Level Indianapolis Center
Fri 11:33:44 PM 37.0678 -83.6728 70° East 501 577 37,000  Level Indianapolis Center
Fri 11:34:45 PM 37.1161 -83.5103 70° East 499 574 37,000  Level Indianapolis Center
Fri 11:35:46 PM 37.1625 -83.3467 70° East 498 573 37,000  Level Indianapolis Center
Fri 11:36:46 PM 37.2103 -83.1839 70° East 498 573 37,000  Level Indianapolis Center
Fri 11:37:47 PM 37.2581 -83.0169 70° East 498 573 37,000  Level Indianapolis Center
Fri 11:38:48 PM 37.3056 -82.8508 70° East 498 573 37,000  Level Indianapolis Center
Fri 11:39:49 PM 37.3522 -82.6847 70° East 498 573 37,000  Level Indianapolis Center
Fri 11:40:49 PM 37.3994 -82.5189 70° East 499 574 37,000  Level Indianapolis Center
Fri 11:41:50 PM 37.4461 -82.3528 70° East 499 574 37,000  Level Indianapolis Center
Fri 11:42:51 PM 37.4919 -82.1872 71° East 499 574 37,000  Level Indianapolis Center
Fri 11:43:52 PM 37.5375 -82.0189 71° East 501 577 37,000  Level Indianapolis Center
Fri 11:44:52 PM 37.5844 -81.8508 71° East 503 579 37,000  Level Indianapolis Center
Fri 11:45:53 PM 37.6303 -81.6833 71° East 503 579 37,000  Level Indianapolis Center
Fri 11:46:54 PM 37.6747 -81.5133 72° East 508 585 37,000  Level Indianapolis Center
Fri 11:47:55 PM 37.7214 -81.3447 71° East 508 585 37,000  Level Indianapolis Center
Fri 11:48:55 PM 37.7736 -81.1447 72° East 510 587 37,000  Level Indianapolis Center
Fri 11:49:56 PM 37.8283 -80.9842 67° East 510 587 37,000  Level Indianapolis Center
Fri 11:50:57 PM 37.8867 -80.8214 66° East 510 587 37,000  Level Indianapolis Center
Fri 11:51:57 PM 37.9450 -80.6583 66° East 510 587 37,000  Level Indianapolis Center
Fri 11:52:58 PM 37.9981 -80.4922 68° East 510 587 37,000  Level Indianapolis Center
Fri 11:53:56 PM 38.0408 -80.3372 71° East 507 583 37,000  Level Washington Center
Fri 11:54:58 PM 38.0861 -80.1719 71° East 508 585 37,000  Level Washington Center
Fri 11:55:56 PM 38.1311 -80.0089 71° East 505 581 37,000  Level Washington Center
Fri 11:56:58 PM 38.1844 -79.8119 71° East 504 580 37,000  Level Washington Center
Fri 11:57:58 PM 38.2286 -79.6481 71° East 502 578 37,000 -836 Level Washington Center
Fri 11:59:00 PM 38.2731 -79.4853 71° East 502 578 35,300 -2,226 Descending Washington Center
Sat 12:00:02 AM 38.3169 -79.3222 71° East 501 577 32,400 -2,750 Descending Washington Center
Sat 12:01:00 AM 38.3597 -79.1572 72° East 501 577 29,800 -2,380 Descending Washington Center
Sat 12:02:03 AM 38.4025 -78.9989 71° East 489 563 27,600 -2,226 Descending Washington Center
Sat 12:03:04 AM 38.4492 -78.8228 71° East 461 531 25,200 -2,100 Descending Washington Center
Sat 12:04:03 AM 38.4836 -78.6889 72° East 448 516 23,400 -1,900 Descending Washington Center
Sat 12:05:04 AM 38.5225 -78.5414 71° East 443 510 21,400 -2,000 Descending Washington Center
Sat 12:06:03 AM 38.5594 -78.3967 72° East 435 501 19,400 -1,651 Descending Washington Center
Sat 12:11:22 AM 38.6781 -77.6706 83° East 337 388 11,000 -1,517 Descending FlightAware ADS-B (KDAA)
Sat 12:11:59 AM 38.6836 -77.6011 84° East 309 356 10,400 -1,119 Descending FlightAware ADS-B (KDAA)
Sat 12:12:21 AM 38.6865 -77.5619 84° East 303 349 9,900 -1,543 Descending FlightAware ADS-B (KDAA)
Sat 12:12:34 AM 38.6880 -77.5383 85° East 299 344 9,500 -1,636 Descending FlightAware ADS-B (KDAA)
Sat 12:12:54 AM 38.6900 -77.5028 85° East 299 344 9,000 -1,538 Descending FlightAware ADS-B (KDAA)
Sat 12:13:13 AM 38.6907 -77.4697 94° East 297 342 8,500 -1,297 Descending FlightAware ADS-B (KDAA)
Sat 12:13:31 AM 38.6870 -77.4383 98° East 289 333 8,200 -938 Descending FlightAware ADS-B (KDAA)
Sat 12:13:45 AM 38.6840 -77.4150 99° East 282 325 8,000 -1,235 Descending FlightAware ADS-B (KDAA)
Sat 12:14:05 AM 38.6800 -77.3839 99° East 271 312 7,500 -1,610 Descending FlightAware ADS-B (KDAA)
Sat 12:14:26 AM 38.6759 -77.3506 98° East 268 308 6,900 -1,500 Descending FlightAware ADS-B (KDAA)
Sat 12:14:53 AM 38.6714 -77.3087 97° East 260 299 6,300 -1,116 Descending FlightAware ADS-B (KDAA)
Sat 12:15:09 AM 38.6687 -77.2857 98° East 249 287 6,100 -774 Descending FlightAware ADS-B (KDAA)
Sat 12:15:24 AM 38.6660 -77.2635 99° East 235 270 5,900 -1,125 Descending FlightAware ADS-B (KDAA)
Sat 12:15:41 AM 38.6631 -77.2411 99° East 223 257 5,500 -1,745 Descending FlightAware ADS-B (KDAA)
Sat 12:16:19 AM 38.6561 -77.1949 100° East 224 258 4,300 -1,714 Descending FlightAware ADS-B
Sat 12:16:23 AM 38.6557 -77.1918 101° East 226 260 4,300 -1,811 Level FlightAware ADS-B (KDAA)
Sat 12:17:12 AM 38.6539 -77.1240 87° East 208 239 2,700 -1,424 Descending FlightAware ADS-B
Sat 12:17:22 AM 38.6535 -77.1409 87° East 208 239 2,900  Climbing FlightAware ADS-B (KDAA)
Sat 12:18:18 AM 38.6572 -77.0420 75° East 206 237 2,700 -103 Descending FlightAware ADS-B
Sat 12:19:19 AM 38.6968 -77.0222 North 144 166 2,700  Level FlightAware ADS-B
Sat 12:19:21 AM 38.6909 -77.0224 North 147 169 2,700 -375 Level FlightAware ADS-B (KDAA)
Sat 12:20:07 AM 38.7239 -77.0248 356° North 128 147 2,400 -436 Descending FlightAware ADS-B (KDAA)
Sat 12:20:16 AM 38.7323 -77.0257 355° North 129 148 2,300 -667 Descending FlightAware ADS-B
Sat 12:21:19 AM 38.7705 -77.0297 355° North 134 154 1,600 -683 Descending FlightAware ADS-B
Sat 12:22:19 AM 38.8082 -77.0334 356° North 136 157 900 -769 Descending FlightAware ADS-B
Sat 12:23:16 AM 38.8430 -77.0369 356° North 135 155 100 -410 Descending FlightAware ADS-B
Sat 12:24:16 AM 38.8667 -77.0333 356° North 135 155 100  Level Potomac TRACON

Login

Don't have an account? Register now (free) for customized features, flight alerts, and more!